Location: Newark
(48.8833°N, 0.9236°W)
Time: 23:58:57
(UTC+00:00)

Transit 4A - Pass Details

Date: 23 November 2019
Orbit: 870 x 975 km, 66.8° (Epoch: 09 December)

Event Time Altitude Azimuth Distance (km) Brightness Sun altitude
Exits shadow 05:56:00 14° 319° (NW) 2,288 9.5 -14.2°
Maximum altitude 06:01:06 65° 240° (WSW) 960 7.8 -13.4°
Drops below altitude 10° 06:06:50 10° 160° (SSE) 2,512 10.7 -12.5°
Sets 06:09:18 0° 157° (SSE) 3,444 11.5 -12.1°
